This is the latest recevied weather packets stored in our database for station/object iz1wiy-2. If no packets are shown the sender has not sent any weather packets the latest 1 day(s).
| Time | Temp. | Humidity | Pressure | Rain* | Wind** | Luminosity | Snow |
|---|---|---|---|---|---|---|---|
| 1777997103 | 18.89° C | 80% | 1011.9 hPa | 0 mm | 2.68 m/s, 234° | - | - |
| 1777996804 | 18.89° C | 80% | 1012 hPa | 0 mm | 2.68 m/s, 227° | - | - |
| 1777996503 | 18.89° C | 80% | 1012.1 hPa | 0 mm | 3.13 m/s, 218° | - | - |
| 1777996203 | 18.89° C | 79% | 1012.2 hPa | 0 mm | 3.13 m/s, 215° | - | - |
| 1777995903 | 18.89° C | 79% | 1012.2 hPa | 0 mm | 3.13 m/s, 217° | - | - |
| 1777995603 | 19.44° C | 79% | 1012.1 hPa | 0 mm | 3.13 m/s, 220° | - | - |
| 1777995303 | 18.89° C | 80% | 1012.1 hPa | 0 mm | 3.13 m/s, 219° | - | - |
| 1777995003 | 18.89° C | 79% | 1012.1 hPa | 0 mm | 3.13 m/s, 213° | - | - |
| 1777994703 | 18.89° C | 79% | 1012.1 hPa | 0 mm | 3.13 m/s, 205° | - | - |
| 1777994404 | 18.89° C | 79% | 1012.1 hPa | 0 mm | 3.13 m/s, 199° | - | - |
| 1777994103 | 18.89° C | 78% | 1012 hPa | 0 mm | 3.13 m/s, 200° | - | - |
| 1777993803 | 18.89° C | 78% | 1012.1 hPa | 0 mm | 3.58 m/s, 202° | - | - |
| 1777993503 | 19.44° C | 78% | 1012 hPa | 0 mm | 3.58 m/s, 202° | - | - |
| 1777993204 | 19.44° C | 77% | 1012 hPa | 0 mm | 3.58 m/s, 204° | - | - |
| 1777992903 | 19.44° C | 77% | 1012 hPa | 0 mm | 3.13 m/s, 208° | - | - |
| 1777992603 | 19.44° C | 76% | 1012.1 hPa | 0 mm | 3.13 m/s, 208° | - | - |
| 1777992303 | 19.44° C | 76% | 1012.1 hPa | 0 mm | 2.68 m/s, 200° | - | - |
| 1777992003 | 19.44° C | 76% | 1012.1 hPa | 0 mm | 2.24 m/s, 197° | - | - |
| 1777991703 | 19.44° C | 76% | 1012.1 hPa | 0 mm | 2.24 m/s, 201° | - | - |
| 1777991403 | 19.44° C | 76% | 1012 hPa | 0 mm | 2.68 m/s, 202° | - | - |
| 1777991103 | 19.44° C | 76% | 1012.1 hPa | 0 mm | 3.13 m/s, 200° | - | - |
| 1777990803 | 19.44° C | 77% | 1011.9 hPa | 0 mm | 3.13 m/s, 200° | - | - |
| 1777990503 | 19.44° C | 77% | 1012 hPa | 0 mm | 2.68 m/s, 202° | - | - |
| 1777990203 | 19.44° C | 77% | 1012 hPa | 0 mm | 2.24 m/s, 206° | - | - |
| 1777989903 | 19.44° C | 77% | 1012.1 hPa | 0 mm | 2.24 m/s, 210° | - | - |
* Rain latest hour (hover to see other rain measurements)
** Current wind speed in m/s (hover to see current wind gust speed)